Home   Weather   Broken Hill   Past weeks

Flag for Australia Past Weather in Broken Hill, New South Wales, Australia — Yesterday and Last 2 Weeks

Now
94 °F

Extremely hot.


Feels Like: 90 °F
Forecast: 81 / 99 °F
Wind: 12 mph from North

Location: Yunta

Current Time: Dec 3, 2016 at 8:22:00 pm

Latest Report: Dec 3, 2016 at 6:30 pm


Visibility: N/A

Pressure: 29.77 "Hg

Humidity: 16%

Dew Point: 41 °F

Location of Broken HillLocation

Past Weather in Broken Hill — Graph

°F

Broken Hill Temperature Yesterday

Maximum temperature yesterday: 89 °F (at 5:30 pm)
Minimum temperature yesterday: 62 °F (at 9:00 am)
Average temperature yesterday: 75 °F

High & Low Weather Summary for the Past Weeks

 TemperatureHumidityPressure
High101 °F (Nov 21, 12:30 pm)91% (Nov 22, 8:30 am)30.17 "Hg (Nov 22, 8:30 am)
Low43 °F (Nov 24, 6:00 am)9% (Nov 28, 2:30 pm)29.67 "Hg (Dec 1, 3:30 pm)
Average70 °F38%29.92 "Hg
* Reported Nov 18 6:30 pm — Dec 3 6:30 pm, Broken Hill, Weather by CustomWeather, © 2016

Note: Actual official high and low records may vary slightly from our data, if they occured in-between our weather recording intervals... More about our weather records

Advertising

Broken Hill Weather History for the Previous 24 Hours

Scroll right to see more
 ConditionsComfort  
Time TempWeatherWind HumidityBarometerVisibility
6:30 pm
Sat, Dec 3
94 °FExtremely hot.12 mph16%29.77 "HgN/A
6:00 pm95 °FExtremely hot.10 mph15%29.77 "HgN/A
5:30 pm96 °FExtremely hot.10 mph14%29.76 "HgN/A
3:30 pm97 °FExtremely hot.8 mph13%29.79 "HgN/A
3:00 pm95 °FExtremely hot.8 mph14%29.80 "HgN/A
2:30 pm96 °FExtremely hot.12 mph14%29.81 "HgN/A
12:30 pm86 °FPleasantly warm.1 mph20%29.87 "HgN/A
12:00 pm84 °FPleasantly warm.3 mph22%29.87 "HgN/A
11:30 am79 °FPleasantly warm.2 mph25%29.89 "HgN/A
9:30 am66 °FMild.5 mph39%29.91 "HgN/A
9:00 am64 °FMild.3 mph43%29.92 "HgN/A
8:30 am62 °FRefreshingly cool.3 mph48%29.91 "HgN/A
6:30 am56 °FCool.8 mph60%29.89 "HgN/A
6:00 am57 °FRefreshingly cool.7 mph59%29.88 "HgN/A
5:30 am57 °FRefreshingly cool.6 mph56%29.88 "HgN/A
3:30 am61 °FRefreshingly cool.6 mph46%29.86 "HgN/A
2:30 am63 °FMild.6 mph43%29.86 "HgN/A
12:30 am72 °FMild.8 mph33%29.87 "HgN/A
12:00 am74 °FMild.8 mph30%29.87 "HgN/A
11:30 pm
Fri, Dec 2
75 °FMild.9 mph30%29.86 "HgN/A
9:30 pm79 °FPleasantly warm.8 mph26%29.84 "HgN/A
9:00 pm80 °FPleasantly warm.7 mph25%29.83 "HgN/A
8:30 pm82 °FPleasantly warm.9 mph24%29.82 "HgN/A
Weather by CustomWeather, © 2016

See weather overviewHow to use our weather pages